Voltar ao catálogo

THINK ORBITAL F2

AtivoCiênciaVLEO
NORAD 62380·PAYLOAD·🇺🇸 United States
Este nome de satélite ainda não foi confirmado por fontes oficiais.

Lançado Dec 21, 2024 de Vandenberg Space Force Base

Loading…

Próximas Passagens (próximas 24 horas)

TLE

AtualizadoSource: Space-Track

Época: Sep 14, 2026, 10:36 UTC

1 62380U 24247D   26257.44203218  .00006752  00000-0  22232-3 0  9998
2 62380  44.9945 159.2164 0001986  81.4493 278.6617 15.32243542 96684

Acompanhe THINK ORBITAL F2 em tempo real com AllMySat

Download on the App Store